Location: Kawakawa
(35.3830°S, 174.0670°E)
Time: 10:48:25
(UTC+13:00)

Envisat - Pass Details

Date: 23 November 2019
Orbit: 764 x 766 km, 98.1° (Epoch: 10 December)

Event Time Altitude Azimuth Distance (km) Brightness Sun altitude
Rises 20:42:31 0° 176° (S) 3,269 6.6 -5.7°
Reaches altitude 10° 20:44:55 10° 181° (S) 2,335 6.0 -6.1°
Maximum altitude 20:49:48 45° 252° (WSW) 1,052 4.4 -7.0°
Drops below altitude 10° 20:54:37 10° 324° (NW) 2,307 5.6 -7.8°
Sets 20:56:59 0° 330° (NNW) 3,225 6.2 -8.2°
